Maßnahmen aufgrund der Corona-Krise

 

Liebe Mitglieder, liebe Besucher


basierend auf den Verordnungen des Landes Baden-Württemberg und den Empfehlungen des BWLV hat der Vorstand folgendes entschieden:

Der Flugbetrieb und alle Vereinsaktivitäten (inkl. Modellflug)  am Flugplatz Nortel werden ab sofort eingestellt.

  • Die Eröffnung der Gaststätte wird vorerst auf den 19.4. verschoben.
  • Die Schulung ist bis zum 19.4. eingestellt. Das betrifft auch Überprüfungsflüge.

Wir bitten alle Mitglieder und Besucher um Verständnis.

Sofern sich Änderungen ergeben, werden wir sofort informieren.

Wir wünschen Allen in dieser schwierigen Zeit vor allem Gesundheit.

Der Vorstand
AeroClub Göppingen-Salach

 

 

 

 

  • 1

WebCam

  
Kamera Halle
Kamera Vorfeld

GPS Triangle WM Sports Class

AeroClub Göppingen-Salach e.V.
Ausrichter der Modellflug
GPS Triangle-WM 2020

Wetter EDDS

METAR

EDDS 100520Z 00000KT CAVOK 05/02 Q1024 NOSIG =
EDDS 100500Z 1006/1106 VRB02KT CAVOK BECMG 1009/1011 01005KT BECMG 1016/1018 VRB02KT


TAF

EDDS 100500Z 1006/1106 VRB02KT CAVOK BECMG 1009/1011 01005KT BECMG 1016/1018 VRB02KT =


SR/SS

04:39 / 18:05 UTC
(EDSO 10-04-2020)